Regional Weather Roundup
Issued by NWS Upton, NY

Current Version | Previous Version | Graphics & Text | Print | Product List | Glossary Off
Versions: 1 2 3 4 5 6 7 8 9 10 11 12 13 14 15 16 17 18 19 20 21 22 23 24 25 26

000
ASUS41 KOKX 230405
RWROKX
REGIONAL WEATHER ROUNDUP
NATIONAL WEATHER SERVICE NEW YORK NY
1200 AM EDT WED APR 23 2014

NOTE: "FAIR" INDICATES FEW OR NO CLOUDS BELOW 12,000 FEET WITH NO
SIGNIFICANT WEATHER AND/OR OBSTRUCTIONS TO VISIBILITY.

NYZ071-072-176-178-NJZ106-104-230500-
NEW YORK CITY METRO AREA


CITY           SKY/WX    TMP DP  RH WIND       PRES   REMARKS
CENTRAL PARK   CLEAR     62  47  57 VRB5      29.53F
LAGUARDIA APRT PTCLDY    64  44  48 W13       29.50F
KENNEDY INTL   PTCLDY    54  49  83 SW8       29.52F
NEWARK/LIBERTY PTCLDY    61  49  64 SW6       29.51F
TETERBORO      CLEAR     60  49  66 CALM      29.50F
$$

NYZ177-179-078>081-230500-
LONG ISLAND NEW YORK

CITY           SKY/WX    TMP DP  RH WIND       PRES   REMARKS
FARMINGDALE    PTCLDY    51  47  86 CALM      29.51S
ISLIP          PTCLDY    51  48  89 CALM      29.50S
SHIRLEY        PTCLDY    50  48  93 SW3       29.53R
WESTHAMPTON    CLEAR     47  45  93 SW3       29.53R
MONTAUK POINT    N/A     49  46  90 CALM      29.52F
$$

NYZ052-065-067-230500-
HUDSON VALLEY

CITY           SKY/WX    TMP DP  RH WIND       PRES   REMARKS
WHITE PLAINS   PTCLDY    56  50  80 CALM      29.50F
NEWBURGH       MOCLDY    55  52  88 CALM      29.52S
MONTGOMERY     MOCLDY    51  49  92 CALM      29.50F
POUGHKEEPSIE   MOCLDY    52  48  86 CALM      29.49F
ALBANY         CLOUDY    51  44  77 W13G24    29.54R
$$

NJZ001-105-106-008-010-013-015-019>022-104-230500-
NEW JERSEY

CITY           SKY/WX    TMP DP  RH WIND       PRES   REMARKS
NEWARK/LIBERTY PTCLDY    61  49  64 SW6       29.51F
TETERBORO      CLEAR     60  49  66 CALM      29.50F
CALDWELL       CLEAR     59  49  69 CALM      29.52F
MORRISTOWN     CLEAR     52  48  87 CALM      29.52S
SOMERVILLE     CLEAR     50  46  86 CALM      29.52S
LINDEN         FAIR      63  48  59 W9        29.53F
SUSSEX         MOCLDY    52  48  86 CALM      29.52F FOG
ANDOVER          N/A     53  48  83 CALM      29.53F
TRENTON        CLEAR     57  45  64 W8        29.56R
MILLVILLE      PTCLDY    56  47  71 W6        29.58F
ATLANTIC CITY  PTCLDY    57  46  66 W7        29.58S
WRIGHTSTOWN    CLEAR     55  48  75 W10       29.55R
TOMS RIVER     CLEAR     54  48  82 W3        29.56S
BELMAR         CLEAR     61  46  59 W6        29.53F
$$

PAZ047>061-062-071-230500-
EASTERN PENNSYLVANIA

CITY           SKY/WX    TMP DP  RH WIND       PRES   REMARKS
PHILADELPHIA   MOCLDY    57  48  72 W10       29.60R
ALLENTOWN      CLEAR     56  46  69 W14       29.57R
SCRANTON       CLOUDY    52  46  80 W12       29.59R
$$

CTZ002-004>006-009-010-012-RIZ004-006-007-MAZ004-011-015-230500-
SOUTHERN NEW ENGLAND
 IN CT

CITY           SKY/WX    TMP DP  RH WIND       PRES   REMARKS
BRADLEY INTL   PTCLDY    54  49  83 CALM      29.48F
HARTFORD       PTCLDY    52  47  83 CALM      29.49F
DANBURY        MOCLDY    51  49  92 S3        29.51F
WTRBRY/OXFORD  MOCLDY    52  46  82 CALM      29.53R
BRIDGEPORT     MOCLDY    52  49  89 CALM      29.50S
MERIDEN        PTCLDY    50  47  89 CALM      29.50F
NEW HAVEN      FOG       48  45  89 CALM      29.50F VSB 3/4
CHESTER        FAIR      48  48 100 CALM      29.50F
GROTON         PTCLDY    48  48 100 CALM      29.50F FOG
WILLIMANTIC    PTCLDY    51  49  92 CALM      29.49F

 IN RI

CITY           SKY/WX    TMP DP  RH WIND       PRES   REMARKS
PROVIDENCE     CLOUDY    52  50  93 S5        29.50F
BLOCK ISLAND   CLOUDY    46  45  93 SW12      29.51F
WESTERLY       CLOUDY    49  48  97 CALM      29.51F

 IN MA

CITY           SKY/WX    TMP DP  RH WIND       PRES   REMARKS
BOSTON         CLOUDY    54  51  90 SW9       29.48F
WORCESTER      MOCLDY    51  50  96 W10       29.48F
WESTFIELD      PTCLDY    52  51  97 SE3       29.49F FOG
PROVINCETOWN   CLOUDY    48  46  93 MISG      29.52F
NANTUCKET      LGT RAIN  49  46  90 S6        29.53F
$$

ANZ330-335-338-340-345-350-353-355-230500-
COASTAL MARINE OBSERVATIONS


STATION/POSITION TIME  SKY/WX   TEMP    WIND        PRES    VSBY  WAVE
                                AIR SEA DIR/SP/G                  HT/PER
                 (UTC)          (F)     (DEG/KT/KT) (MB)    (MI)  (FT/S)
NY HARB ENTRANCE 0400            52 47  VRB  6/  6   999.7
4S FIRE IS       0300               47                N/A           4/ 8
23SW MTP         0400            45 43  210/  8/ 10  998.9          3/ 9
HUDSON CANYON    0300            48 46  230/ 12/ 14 1000.8          5/ 8
EXECUTION ROCKS  0400            54 47  210/  6/  8   N/A
WESTERN LI SOUND 0400            54     250/  6/  8   N/A           0
CENTRAL LI SOUND 0300            46 45   60/  2/  4   N/A           1
EASTERN LI SOUND NOT AVBL
ROBBINS REEF     0400            62     250/ 11/ 12   N/A
$$


>>>>>>>>>>>>>>>>>>>>>>>>>>>> KEY <<<<<<<<<<<<<<<<<<<<<<<<<<<
>                                                          <
>     SKY/WX - SKY CONDITION/PRESENT WEATHER               <
>     TMP    - TEMPERATURE IN FAHRENHEIT                   <
>     DP     - DEWPOINT IN FAHRENHEIT                      <
>     RH     - RELATIVE HUMIDITY IN PERCENT                <
>     WIND   - DIRECTION AND SPEED IN MPH                  <
>     PRES   - MEAN SEA LEVEL PRESSURE IN INCHES OF HG     <
>     WCI    - WIND CHILL INDEX                            <
>     VSB    - VISIBILITY IN MILES                         <
>     HX     - HEAT INDEX                                  <
>     TC     - TEMPERATURE IN CELSIUS                      <
>     VRB    - VARIABLE WIND DIRECTION                     <
>                                                          <
>>>>>>>>>>>>>>>>>>>>>>>>>>>> KEY <<<<<<<<<<<<<<<<<<<<<<<<<<<





USA.gov is the U.S. government's official web portal to all federal, state and local government web resources and services.